TimePDT,TemperatureF,Dew PointF,Humidity,Sea Level PressureIn,VisibilityMPH,Wind Direction,Wind SpeedMPH,Gust SpeedMPH,PrecipitationIn,Events,Conditions,WindDirDegrees,DateUTC
12:15 AM,57.2,57.2,100,29.88,10.0,Calm,Calm,-,N/A,,Overcast,0,2013-09-11 07:15:00
12:35 AM,57.2,57.2,100,29.88,10.0,Calm,Calm,-,N/A,,Overcast,0,2013-09-11 07:35:00
12:55 AM,57.2,57.2,100,29.89,10.0,SSW,3.5,-,N/A,,Overcast,200,2013-09-11 07:55:00
1:15 AM,57.2,57.2,100,29.89,9.0,SSW,4.6,-,N/A,,Overcast,200,2013-09-11 08:15:00
1:35 AM,57.2,57.2,100,29.89,7.0,SSW,3.5,-,N/A,,Overcast,200,2013-09-11 08:35:00
1:55 AM,57.2,57.2,100,29.89,8.0,Calm,Calm,-,N/A,,Overcast,0,2013-09-11 08:55:00
2:15 AM,57.2,57.2,100,29.89,10.0,South,4.6,-,N/A,,Overcast,170,2013-09-11 09:15:00
2:35 AM,57.2,57.2,100,29.89,9.0,Calm,Calm,-,N/A,,Overcast,0,2013-09-11 09:35:00
2:55 AM,57.2,57.2,100,29.89,7.0,Calm,Calm,-,N/A,,Overcast,0,2013-09-11 09:55:00
3:15 AM,57.2,57.2,100,29.89,10.0,Calm,Calm,-,N/A,,Overcast,0,2013-09-11 10:15:00
3:35 AM,57.2,57.2,100,29.89,10.0,Calm,Calm,-,N/A,,Overcast,0,2013-09-11 10:35:00
3:55 AM,57.2,57.2,100,29.89,10.0,Calm,Calm,-,N/A,,Overcast,0,2013-09-11 10:55:00
4:15 AM,57.2,57.2,100,29.90,10.0,Calm,Calm,-,N/A,,Overcast,0,2013-09-11 11:15:00
4:35 AM,57.2,57.2,100,29.90,10.0,WNW,4.6,-,N/A,,Overcast,290,2013-09-11 11:35:00
4:55 AM,57.2,57.2,100,29.90,10.0,WNW,3.5,-,N/A,,Overcast,300,2013-09-11 11:55:00
5:15 AM,57.2,57.2,100,29.91,7.0,WNW,3.5,-,N/A,,Overcast,290,2013-09-11 12:15:00
5:35 AM,57.2,57.2,100,29.91,10.0,West,4.6,-,N/A,,Overcast,270,2013-09-11 12:35:00
5:55 AM,55.4,55.4,100,29.92,9.0,WSW,5.8,-,N/A,,Overcast,250,2013-09-11 12:55:00
6:15 AM,55.4,55.4,100,29.93,10.0,WSW,4.6,-,N/A,,Overcast,250,2013-09-11 13:15:00
6:35 AM,57.2,57.2,100,29.93,10.0,Calm,Calm,-,N/A,,Overcast,0,2013-09-11 13:35:00
6:55 AM,57.2,57.2,100,29.94,2.0,Calm,Calm,-,N/A,,Overcast,0,2013-09-11 13:55:00
7:15 AM,57.2,57.2,100,29.94,2.0,Calm,Calm,-,N/A,,Overcast,0,2013-09-11 14:15:00
7:35 AM,57.2,55.4,94,29.94,2.0,Calm,Calm,-,N/A,,Overcast,0,2013-09-11 14:35:00
7:55 AM,57.2,57.2,100,29.94,2.0,Calm,Calm,-,N/A,,Overcast,0,2013-09-11 14:55:00
8:15 AM,57.2,57.2,100,29.95,2.0,ESE,5.8,-,N/A,,Overcast,110,2013-09-11 15:15:00
8:35 AM,57.2,57.2,100,29.95,2.0,East,3.5,-,N/A,,Overcast,100,2013-09-11 15:35:00
8:55 AM,59.0,57.2,94,29.95,2.0,ESE,3.5,-,N/A,,Overcast,120,2013-09-11 15:55:00
9:15 AM,59.0,59.0,100,29.95,2.0,East,3.5,-,N/A,,Overcast,100,2013-09-11 16:15:00
9:35 AM,59.0,57.2,94,29.95,2.0,Calm,Calm,-,N/A,,Overcast,0,2013-09-11 16:35:00
9:55 AM,59.0,57.2,94,29.96,3.0,Calm,Calm,-,N/A,,Overcast,0,2013-09-11 16:55:00
10:15 AM,60.8,59.0,94,29.96,3.0,Calm,Calm,-,N/A,,Overcast,0,2013-09-11 17:15:00
10:35 AM,60.8,59.0,94,29.97,3.0,WNW,3.5,-,N/A,,Overcast,300,2013-09-11 17:35:00
10:55 AM,60.8,59.0,94,29.97,3.0,Calm,Calm,-,N/A,,Overcast,0,2013-09-11 17:55:00
11:15 AM,60.8,59.0,94,29.97,6.0,Calm,Calm,-,N/A,,Overcast,0,2013-09-11 18:15:00
11:35 AM,62.6,59.0,88,29.97,6.0,Calm,Calm,-,N/A,,Overcast,0,2013-09-11 18:35:00
11:55 AM,62.6,60.8,94,29.98,10.0,WSW,5.8,-,N/A,,Overcast,250,2013-09-11 18:55:00
12:15 PM,64.4,60.8,88,29.98,10.0,WSW,3.5,-,N/A,,Overcast,250,2013-09-11 19:15:00
12:35 PM,64.4,60.8,88,29.97,10.0,West,10.4,-,N/A,,Overcast,260,2013-09-11 19:35:00
12:55 PM,66.2,60.8,83,29.97,10.0,West,11.5,-,N/A,,Overcast,260,2013-09-11 19:55:00
1:15 PM,66.2,60.8,83,29.97,10.0,West,13.8,-,N/A,,Overcast,260,2013-09-11 20:15:00
1:35 PM,66.2,60.8,83,29.97,10.0,WSW,15.0,-,N/A,,Overcast,250,2013-09-11 20:35:00
1:55 PM,66.2,60.8,83,29.97,10.0,WSW,12.7,-,N/A,,Overcast,250,2013-09-11 20:55:00
2:15 PM,68.0,60.8,78,29.97,10.0,WSW,13.8,-,N/A,,Overcast,250,2013-09-11 21:15:00
2:35 PM,66.2,60.8,83,29.97,10.0,WSW,13.8,-,N/A,,Overcast,250,2013-09-11 21:35:00
2:55 PM,66.2,60.8,83,29.97,10.0,WSW,15.0,21.9,N/A,,Overcast,250,2013-09-11 21:55:00
3:15 PM,66.2,60.8,83,29.97,10.0,WSW,15.0,-,N/A,,Mostly Cloudy,250,2013-09-11 22:15:00
3:35 PM,66.2,60.8,83,29.98,10.0,WSW,13.8,-,N/A,,Mostly Cloudy,250,2013-09-11 22:35:00
3:55 PM,66.2,59.0,78,29.98,10.0,WSW,13.8,-,N/A,,Scattered Clouds,250,2013-09-11 22:55:00
4:15 PM,66.2,59.0,78,29.98,10.0,WSW,12.7,-,N/A,,Scattered Clouds,250,2013-09-11 23:15:00
4:35 PM,66.2,60.8,83,29.98,10.0,West,15.0,-,N/A,,Scattered Clouds,260,2013-09-11 23:35:00
4:55 PM,64.4,59.0,83,29.98,10.0,WSW,12.7,-,N/A,,Mostly Cloudy,250,2013-09-11 23:55:00
5:15 PM,62.6,59.0,88,29.98,10.0,WSW,9.2,-,N/A,,Overcast,250,2013-09-12 00:15:00
5:35 PM,62.6,59.0,88,29.98,10.0,WSW,11.5,17.3,N/A,,Overcast,250,2013-09-12 00:35:00
5:55 PM,62.6,59.0,88,29.99,10.0,WSW,8.1,-,N/A,,Overcast,250,2013-09-12 00:55:00
6:15 PM,62.6,59.0,88,29.99,10.0,WSW,8.1,-,N/A,,Overcast,250,2013-09-12 01:15:00
6:35 PM,62.6,59.0,88,29.99,10.0,WSW,5.8,-,N/A,,Overcast,250,2013-09-12 01:35:00
6:55 PM,62.6,59.0,88,29.99,10.0,WSW,3.5,-,N/A,,Overcast,250,2013-09-12 01:55:00
7:15 PM,60.8,57.2,88,29.99,10.0,West,4.6,-,N/A,,Overcast,270,2013-09-12 02:15:00
7:35 PM,60.8,57.2,88,29.99,10.0,West,3.5,-,N/A,,Overcast,280,2013-09-12 02:35:00
7:55 PM,62.6,59.0,88,30.00,10.0,WSW,5.8,-,N/A,,Overcast,250,2013-09-12 02:55:00
8:15 PM,62.6,59.0,88,30.00,10.0,SW,3.5,-,N/A,,Overcast,230,2013-09-12 03:15:00
8:35 PM,62.6,59.0,88,30.00,10.0,WSW,3.5,-,N/A,,Overcast,240,2013-09-12 03:35:00
8:55 PM,62.6,59.0,88,30.00,10.0,West,5.8,-,N/A,,Overcast,260,2013-09-12 03:55:00
9:15 PM,62.6,59.0,88,30.01,10.0,WSW,4.6,-,N/A,,Overcast,250,2013-09-12 04:15:00
9:35 PM,62.6,59.0,88,30.01,10.0,West,3.5,-,N/A,,Overcast,260,2013-09-12 04:35:00
9:55 PM,62.6,59.0,88,30.01,10.0,West,3.5,-,N/A,,Overcast,260,2013-09-12 04:55:00
10:15 PM,62.6,59.0,88,30.01,10.0,SW,4.6,-,N/A,,Overcast,230,2013-09-12 05:15:00
10:35 PM,62.6,59.0,88,30.01,10.0,SW,4.6,-,N/A,,Overcast,220,2013-09-12 05:35:00
10:55 PM,62.6,59.0,88,30.01,10.0,SSW,4.6,-,N/A,,Overcast,210,2013-09-12 05:55:00
11:15 PM,62.6,59.0,88,30.01,10.0,SSW,4.6,-,N/A,,Overcast,200,2013-09-12 06:15:00
11:35 PM,62.6,59.0,88,30.01,10.0,SSE,5.8,-,N/A,,Overcast,160,2013-09-12 06:35:00
11:55 PM,62.6,59.0,88,30.01,10.0,South,5.8,-,N/A,,Overcast,180,2013-09-12 06:55:00